クリステンセン彗星

P/2005 T2 ( Christensen )

English version
Home page
Updated on April 23, 2006

---------------------------------------------------------------------

・ プロフィール

発見日 2005年10月7日
発見光度 19.9等
発見者 Eric Christensen (Mt. Lemmon Survey)

・ 軌道要素

T 2005 Apr. 11.2792 TT                                  MPC
q   2.210877             (2000.0)            P               Q
n   0.1317078      Peri.   58.3427      +0.7453848      +0.6510999
a   3.825854       Node   260.6183      -0.6501490      +0.6625772
e   0.422122       Incl.    8.3381      -0.1473355      +0.3702167
P   7.48
>From 70 observations 2005 Oct. 7-Nov. 25.

・ 光度変化

        m1 = 15.0 + 5 logΔ + 10.0 log r

---------------------------------------------------------------------

軌道要素はM.P.E.C. 2005-W80に掲載されたものです。
光度グラフはComet for Windowsで作成したものです。

---------------------------------------------------------------------

Copyright(C) Seiichi Yoshida (comet@aerith.net). All rights reserved.